Location: Augustenthal
(51.7167°N, 10.2833°E)
Time: 07:50:55
(UTC+00:00)

ALOS 2 - Pass Details

Date: 24 September 2021
Orbit: 630 x 632 km, 97.9° (Epoch: 23 October)

Event Time Altitude Azimuth Distance (km) Brightness Sun altitude
Exits shadow 21:22:48 13° 18° (NNE) 1,859 5.4 -34.3°
Drops below altitude 10° 21:23:23 10° 12° (NNE) 2,027 5.6 -34.3°
Sets 21:26:03 0° 356° (N) 2,939 6.8 -34.6°
